Fulton, CA (95439)

8:37 AM PDT on March 30, 2017 (GMT -0700)
Larkfield - Saddlebrook | | Change Station

Elev 151 ft 38.51 °N, 122.76 °W | Updated 48 seconds ago

Partly Cloudy
Partly Cloudy
55.1 °F
Feels Like 55.1 °F
N
0.0
Wind Variable Wind from NNW

Today
High -- | Low -- °F
--% Chance of Precip.
Yesterday
High -- | Low -- °F
Precip. -- in
Pressure 30.11 in
Visibility 10.0 miles
Clouds Few 25000 ft
Dew Point 42 °F
Humidity 63%
Rainfall 0.00 in
Snow Depth Not available.
6:58 AM 7:32 PM
Waxing Crescent, 9% visible
METAR KSTS 301453Z 32010KT 10SM FEW250 11/04 A3012 RMK AO2 SLP195 T01060044 53026
Pressure 30.11 in
Visibility 10.0 miles
Clouds Few 25000 ft
Dew Point 42 °F
Humidity 63%
Rainfall 0.00 in
Snow Depth Not available.
6:58 AM 7:32 PM
Waxing Crescent, 9% visible
METAR KSTS 301453Z 32010KT 10SM FEW250 11/04 A3012 RMK AO2 SLP195 T01060044 53026

Get Severe Weather Alerts

Thanks for signing up!

Be on the lookout for a verification email in your inbox.

You'll start receiving the daily forecast at 8 AM.

×

10-Day Weather Forecast

Almanac

Astronomy

Mar. 30, 2017 Rise Set
Actual Time
Civil Twilight
Nautical Twilight
Astronomical Twilight
Moon
Length of Visible Light
Length of Day
Tomorrow will be .
, % of the Moon is Illuminated

Today's Extremes

State Highs State Lows

Community

WunderPhotos

Upload Photos

1,962,540 photos uploaded!

WunderBlog® & News

Nearby

Air Quality

  Air Quality AQ Index Pollutant
Not available.

Snow Depth

Station Depth Elevation

Earthquake Activity

City Distance Mag. Time & Date
Minimum magnitude displayed is 2.5.

Earthquake Activity

City Distance Mag. Time & Date
Minimum magnitude displayed is 2.5.

Coastal Water Temperatures

Place Temperature

Stations

Nearby Weather Stations

Station Location Temp. Windchill Dew Point Humidity Wind Precip. Elev Updated Type
                   

Watches & Warnings

There are currently no watches in effect.